FW6146 Weather Reports


time (UTC)temp
F
wind
direction
speed
knots
gust
knots
rain 1hr
in
rain 24hr
in
rain mn
in
humidity
%
barometer
mb
20260906162153 64 0.0 0.9 0.00 0.00 0.00 79 1014.9
20260906161139 63 303 0.9 1.7 0.00 0.00 0.00 78 1014.9
20260906160146 63 0.0 0.9 0.00 0.00 0.00 79 1015.0
20260906155205 63 0.0 0.0 0.00 0.00 0.00 81 1015.0
20260906154205 63 327 0.0 0.9 0.00 0.00 0.00 82 1015.2
20260906153151 62 0.0 0.0 0.00 0.00 0.00 81 1015.0
20260906152137 63 0.0 0.0 0.00 0.00 0.00 85 1015.0
20260906151156 63 0.0 0.0 0.00 0.00 0.00 84 1015.1
20260906150142 63 0.0 0.0 0.00 0.00 0.00 82 1015.2
20260906145148 62 0.0 0.0 0.00 0.00 0.00 83 1015.2
20260906144208 63 0.0 0.9 0.00 0.00 0.00 82 1014.9
20260906143134 63 303 0.0 2.6 0.00 0.00 0.00 83 1015.0
20260906142154 62 0.0 0.9 0.00 0.00 0.00 86 1015.0
20260906141220 62 0.0 0.0 0.00 0.00 0.00 87 1014.9
20260906140159 62 316 0.9 1.7 0.00 0.00 0.00 88 1014.8
20260906135145 62 0.0 0.9 0.00 0.00 0.00 92 1014.7
20260906134131 60 0.0 0.0 0.00 0.00 0.00 93 1014.8
20260906133151 60 0.0 0.9 0.00 0.00 0.00 94 1015.0
20260906132137 61 0.0 0.0 0.00 0.00 0.00 95 1015.1
20260906131156 60 0.0 0.9 0.00 0.00 0.00 96 1014.9
20260906130142 60 249 0.9 1.7 0.00 0.00 0.00 96 1015.0
20260906125202 60 0.0 0.0 0.00 0.00 0.00 96 1014.9
20260906124149 60 0.0 0.0 0.00 0.00 0.00 97 1014.9
20260906123135 59 0.0 0.0 0.00 0.00 0.00 97 1014.8
20260906122154 59 0.0 0.0 0.00 0.00 0.00 97 1014.6
20260906121220 59 0.0 0.0 0.00 0.00 0.00 97 1014.5
20260906120159 59 0.0 0.0 0.00 0.00 0.00 97 1014.5
20260906115146 59 0.0 0.0 0.00 0.00 0.00 97 1014.5
20260906114205 59 0.0 0.0 0.00 0.00 0.00 97 1014.4
20260906113151 59 0.0 0.0 0.00 0.00 0.00 97 1014.4
20260906112138 59 0.0 0.0 0.00 0.00 0.00 97 1014.0
20260906111217 59 0.0 0.0 0.00 0.00 0.00 97 1014.0
20260906110144 59 0.0 0.0 0.00 0.00 0.00 96 1013.8
20260906105203 58 0.0 0.0 0.00 0.00 0.00 96 1013.7
20260906104149 59 0.0 0.0 0.00 0.00 0.00 96 1013.7
20260906103229 59 0.0 0.0 0.00 0.00 0.00 96 1013.7
20260906102155 59 0.0 0.0 0.00 0.00 0.00 96 1013.5
20260906101141 59 0.0 0.0 0.00 0.00 0.00 96 1013.6
20260906100220 59 0.0 0.0 0.00 0.00 0.00 96 1013.8
20260906095226 59 0.0 0.0 0.00 0.00 0.00 95 1013.5
20260906094206 59 0.0 0.0 0.00 0.00 0.00 95 1013.4
20260906093212 59 0.0 0.0 0.00 0.00 0.00 95 1013.3
20260906092211 59 0.0 0.0 0.00 0.00 0.00 95 1013.3
20260906091217 59 0.0 0.0 0.00 0.00 0.00 95 1013.2
20260906090204 60 0.0 0.0 0.00 0.00 0.00 95 1012.9
20260906085203 60 0.0 0.0 0.00 0.00 0.00 95 1013.0
20260906084149 60 0.0 0.0 0.00 0.00 0.00 95 1012.8
20260906083209 60 0.0 0.0 0.00 0.00 0.00 95 1012.7
20260906082155 61 0.0 0.0 0.00 0.00 0.00 95 1012.7
20260906081215 61 0.0 0.0 0.00 0.00 0.00 95 1012.6
20260906080200 61 0.0 0.0 0.00 0.00 0.00 95 1012.3
20260906075147 61 0.0 0.0 0.00 0.00 0.00 95 1012.5
20260906074206 61 0.0 0.0 0.00 0.00 0.00 94 1012.4
20260906073152 61 0.0 0.0 0.00 0.00 0.00 95 1012.5
20260906072212 61 0.0 0.0 0.00 0.00 0.00 95 1012.3
20260906071158 61 0.0 0.0 0.00 0.00 0.00 95 1012.4
20260906070237 61 0.0 0.0 0.00 0.00 0.00 95 1012.4
20260906065203 61 0.0 0.0 0.00 0.00 0.00 94 1012.5
20260906064149 61 0.0 0.0 0.00 0.00 0.00 94 1012.5
20260906063249 61 0.0 0.0 0.00 0.00 0.00 94 1012.3
20260906062155 61 0.0 0.0 0.00 0.00 0.00 94 1012.3
20260906061215 61 0.0 0.0 0.00 0.00 0.00 94 1012.4
20260906060201 61 0.0 0.0 0.00 0.00 0.00 94 1012.3
20260906055220 61 0.0 0.0 0.00 0.00 0.00 93 1012.4
20260906054206 61 0.0 0.0 0.00 0.00 0.00 93 1012.4
20260906053153 61 0.0 0.0 0.00 0.00 0.00 93 1012.4
20260906052212 61 0.0 0.0 0.00 0.00 0.00 92 1012.6
20260906051158 61 0.0 0.0 0.00 0.00 0.00 92 1012.7
20260906050238 61 0.0 0.0 0.00 0.00 0.00 92 1012.9
20260906045204 61 0.0 0.0 0.00 0.00 0.00 92 1012.7
20260906044223 61 0.0 0.0 0.00 0.00 0.00 91 1012.5
20260906043209 61 0.0 0.0 0.00 0.00 0.00 91 1012.7
20260906042155 61 0.0 0.0 0.00 0.00 0.00 91 1012.5
20260906041215 61 0.0 0.0 0.00 0.00 0.00 90 1012.5
20260906040234 61 0.0 0.0 0.00 0.00 0.00 89 1012.6
20260906035221 62 0.0 0.0 0.00 0.00 0.00 89 1012.4
20260906034207 62 0.0 0.0 0.00 0.00 0.00 89 1012.3
20260906033226 62 0.0 0.0 0.00 0.00 0.00 87 1012.2
20260906032212 62 0.0 0.0 0.00 0.00 0.00 86 1012.3
20260906031159 62 0.0 0.0 0.00 0.00 0.00 86 1012.1
20260906030218 62 0.0 0.0 0.00 0.00 0.00 85 1012.3
20260906025204 63 0.0 0.0 0.00 0.00 0.00 86 1012.3
20260906024224 63 0.0 0.0 0.00 0.00 0.00 86 1012.4
20260906023210 63 0.0 0.0 0.00 0.00 0.00 85 1012.5
20260906022216 63 0.0 0.0 0.00 0.00 0.00 85 1012.4
20260906021216 63 0.0 0.0 0.00 0.00 0.00 85 1012.2
20260906020202 63 0.0 0.0 0.00 0.00 0.00 85 1012.3
20260906015221 63 0.0 0.0 0.00 0.00 0.00 85 1012.3
20260906014228 63 0.0 0.0 0.00 0.00 0.00 85 1012.4
20260906013227 63 0.0 0.0 0.00 0.00 0.00 86 1012.3
20260906012214 63 0.0 0.0 0.00 0.00 0.00 86 1012.3
20260906011200 63 0.0 0.0 0.00 0.00 0.00 85 1012.4
20260906010219 63 0.0 0.0 0.00 0.00 0.00 85 1012.2
20260906005205 63 0.0 0.0 0.00 0.00 0.00 85 1012.3
20260906004225 63 0.0 0.0 0.00 0.00 0.00 85 1012.1
20260906003231 63 0.0 0.0 0.00 0.00 0.00 85 1011.9
20260906002230 63 0.0 0.0 0.00 0.00 0.00 85 1011.8
20260906001216 64 0.0 0.0 0.00 0.00 0.00 85 1011.9
20260906000149 64 0.0 0.0 0.00 0.00 0.00 84 1011.6
20260905235115 64 0.0 0.0 0.00 0.00 0.00 83 1011.6
20260905234102 64 0.0 0.0 0.00 0.00 0.00 84 1011.7
20260905233141 64 0.0 0.0 0.00 0.00 0.00 83 1011.6
20260905232107 64 0.0 0.0 0.00 0.00 0.00 82 1011.6
20260905231127 64 0.0 0.0 0.00 0.00 0.00 82 1011.4
20260905230113 65 0.0 0.0 0.00 0.00 0.00 81 1011.2
20260905225213 65 0.0 0.0 0.00 0.00 0.00 80 1011.3
20260905224139 65 0.0 0.0 0.00 0.00 0.00 80 1011.4
20260905223106 65 0.0 0.0 0.00 0.00 0.00 80 1011.4
20260905222125 65 0.0 0.0 0.00 0.00 0.00 80 1011.4
20260905221110 65 301 0.0 0.9 0.00 0.00 0.00 81 1011.3
20260905220130 66 0.0 0.9 0.00 0.00 0.00 81 1011.3
20260905215116 66 308 1.7 4.3 0.00 0.00 0.00 82 1011.0
20260905214136 66 0.0 0.9 0.00 0.00 0.00 82 1010.9
20260905213122 66 0.0 0.0 0.00 0.00 0.00 82 1010.8
20260905212108 66 0.0 0.0 0.00 0.00 0.00 81 1010.9
20260905211128 67 0.0 0.0 0.00 0.00 0.00 79 1010.8
20260905210134 67 0.0 1.7 0.00 0.00 0.00 78 1010.9
20260905205134 68 322 1.7 2.6 0.00 0.00 0.00 78 1010.7
20260905204121 68 275 0.9 0.9 0.00 0.00 0.00 79 1010.7
20260905203140 68 0.0 0.9 0.00 0.00 0.00 80 1010.7
20260905202125 68 297 0.0 0.9 0.00 0.00 0.00 78 1010.4
20260905201111 69 352 0.9 2.6 0.00 0.00 0.00 76 1010.2
20260905200151 69 0.0 0.9 0.00 0.00 0.00 77 1010.1
20260905195117 69 0.0 0.9 0.00 0.00 0.00 77 1010.0
20260905194137 70 281 0.0 1.7 0.00 0.00 0.00 76 1010.0
20260905193122 70 0.0 0.0 0.00 0.00 0.00 75 1010.2
20260905192141 69 25 0.0 1.7 0.00 0.00 0.00 76 1010.3
20260905191128 69 308 0.9 1.7 0.00 0.00 0.00 77 1010.1
20260905190114 68 321 0.9 2.6 0.00 0.00 0.00 77 1010.1
20260905185153 68 0.0 0.0 0.00 0.00 0.00 79 1010.3
20260905184119 67 291 0.0 1.7 0.00 0.00 0.00 82 1010.2
20260905183139 67 284 0.0 0.9 0.00 0.00 0.00 83 1010.3
20260905182125 68 0.0 0.0 0.00 0.00 0.00 82 1010.4
20260905181145 69 335 0.0 0.9 0.00 0.00 0.00 79 1010.3
20260905180151 70 295 0.9 2.6 0.00 0.00 0.00 79 1010.2
20260905175137 69 2 0.9 0.9 0.00 0.00 0.00 79 1010.1
20260905174136 69 310 0.9 0.9 0.00 0.00 0.00 79 1009.9
20260905173123 70 0.0 1.7 0.00 0.00 0.00 78 1009.8
20260905172142 69 0.0 0.0 0.00 0.00 0.00 79 1009.9
20260905171129 70 0.0 0.0 0.00 0.00 0.00 79 1009.6
20260905170148 69 316 0.9 1.7 0.00 0.00 0.00 80 1009.9
20260905165135 68 294 0.0 0.9 0.00 0.00 0.00 81 1009.7
20260905164121 68 0.0 0.0 0.00 0.00 0.00 81 1009.5
20260905163140 68 10 0.0 0.9 0.00 0.00 0.00 80 1009.8